Location: Lango�lan
(48.1202°N, 3.2340°W)
Time: 16:58:11
(UTC+00:00)

METEOR-M - Pass Details

Date: 23 October 2019
Orbit: 815 x 820 km, 98.4° (Epoch: 17 November)

Event Time Altitude Azimuth Distance (km) Brightness Sun altitude
Rises 06:07:03 0° 12° (NNE) 3,357 7.4 -6.8°
Reaches altitude 10° 06:09:25 10° 10° (N) 2,420 6.6 -6.4°
Maximum altitude 06:14:44 70° 288° (WNW) 870 4.1 -5.5°
Drops below altitude 10° 06:20:01 10° 206° (SSW) 2,401 6.4 -4.7°
Sets 06:22:21 0° 204° (SSW) 3,329 7.2 -4.3°
